{"data":{"norad_id":61853,"intl_designator":"2024-202J","name":"STARLINK-32394","alt_names":[],"object_type":"PAYLOAD","status":"ACTIVE","operator":null,"country":"US","launch_date":"2024-11-07","launch_site_code":"AFETR","launch_vehicle":null,"mission":null,"orbit_class":"UNKNOWN","rcs_meters":null,"size_class":null,"mass_kg":null,"dimensions":null,"purposes":["comms"],"wikipedia_slug":null,"has_3d_model":false,"image_url":null,"decayed_at":null,"tle_current":{"epoch":"2026-05-24T18:03:37.237248Z","epoch_age_seconds":89648,"freshness":"FRESH","line1":"1 61853U 24202J   26144.75251432  .00001299  00000+0  56704-4 0  9995","line2":"2 61853  42.9992 168.1515 0001456 264.4800  95.5886 15.27581999 86963","mean_motion":15.27581999,"eccentricity":0.0001456,"inclination_deg":42.9992,"raan_deg":168.1515,"arg_perigee_deg":264.48,"mean_anomaly_deg":95.5886,"bstar":5.6704e-5,"rev_number":8696,"period_min":94.266625355802,"perigee_km":482.04412249698,"apogee_km":484.04209814511,"semimajor_km":6861.180110321,"source":"CELESTRAK","updated_at":"2026-05-25T13:38:19.451248Z"}}}